User: anonymous   Login
Location: Unspecified
(0.0000°N, 0.0000°E)
Time: 21:52:10
(UTC+00:00)
Language:

STARLINK-31911 - Orbit

View from above orbital plane
View from above orbital plane
View from above satellite
View from above satellite

Ground track
Ground track

The orbit is defined by the following mean orbital elements,

1 60587U          26145.18642125 +.00000000 +00000-0 -15470-4 0 00008
2 60587  53.1626 310.9860 0001259  67.7834 292.3303 15.34372454    00
Epoch (UTC): 25 May 2026 04:28:26
Eccentricity: 0.0001259
inclination: 53.1626°
perigee height: 462 km
apogee height: 464 km
right ascension of ascending node: 310.9860°
argument of perigee: 67.7834°
revolutions per day: 15.34372454
mean anomaly at epoch: 292.3303°

The dashed part of the orbit path shows where the satellite is in the earth's shadow,  

DLR